RPT90 KMIA-SKCG

Flight info

Callsign RPT90
Flight time N/A
Altitude 35000
Route GWAVA2 URSUS UP406 PUTUL DCT SIA DCT SUDSA UP406 UBSUX UBSUX2A
Aircraft B738/M-SDE2E3FGHIRWXY/LB1

Departure

Time N/A
Airport Miami International Airport (KMIA)

Arrival

Time 2026-04-16 16:29
Airport Rafael Nuñez International Airport (SKCG)
Time Latitude Longitude Altitude Speed Heading
2026-04-16 15:55 12.94832 -76.78992 32046 ft 493 kts 168°
2026-04-16 15:55 12.91478 -76.78275 31655 ft 495 kts 169°
2026-04-16 15:55 12.88070 -76.77569 31266 ft 496 kts 169°
2026-04-16 15:56 12.84710 -76.76889 30881 ft 495 kts 169°
2026-04-16 15:56 12.81280 -76.76205 30488 ft 497 kts 169°
2026-04-16 15:56 12.77879 -76.75531 30102 ft 498 kts 170°
2026-04-16 15:56 12.74467 -76.74857 29718 ft 499 kts 170°
2026-04-16 15:57 12.71065 -76.74119 29335 ft 499 kts 167°
2026-04-16 15:57 12.67725 -76.73168 28956 ft 500 kts 162°
2026-04-16 15:57 12.64456 -76.71958 28584 ft 503 kts 158°
2026-04-16 15:57 12.61204 -76.70561 28211 ft 502 kts 156°
2026-04-16 15:58 12.58029 -76.69088 27839 ft 500 kts 155°
2026-04-16 15:58 12.54872 -76.67572 27468 ft 501 kts 155°
2026-04-16 15:58 12.51713 -76.66040 27097 ft 502 kts 155°
2026-04-16 15:58 12.48542 -76.64508 26724 ft 502 kts 155°
2026-04-16 15:59 12.42205 -76.61491 25983 ft 501 kts 156°
2026-04-16 15:59 12.39064 -76.60015 25619 ft 501 kts 156°
2026-04-16 15:59 12.35885 -76.58530 25247 ft 500 kts 156°
2026-04-16 16:00 12.32735 -76.57063 24880 ft 499 kts 156°
2026-04-16 16:00 12.29582 -76.55597 24509 ft 494 kts 157°
2026-04-16 16:00 12.26458 -76.54146 24140 ft 491 kts 157°
2026-04-16 16:00 12.23327 -76.52693 23764 ft 488 kts 157°
2026-04-16 16:01 12.20238 -76.51260 23400 ft 485 kts 157°
2026-04-16 16:01 12.17187 -76.49844 23033 ft 481 kts 157°
2026-04-16 16:01 12.14137 -76.48428 22667 ft 478 kts 157°
2026-04-16 16:01 12.11142 -76.47040 22305 ft 474 kts 158°
2026-04-16 16:02 12.08141 -76.45648 21944 ft 472 kts 157°
2026-04-16 16:02 12.05133 -76.44254 21580 ft 469 kts 157°
2026-04-16 16:02 12.02163 -76.42879 21219 ft 467 kts 157°
2026-04-16 16:02 11.99221 -76.41521 20861 ft 464 kts 157°
2026-04-16 16:03 11.96267 -76.40157 20502 ft 463 kts 157°
2026-04-16 16:03 11.93327 -76.38796 20141 ft 458 kts 156°
2026-04-16 16:03 11.90415 -76.37448 19779 ft 455 kts 156°
2026-04-16 16:03 11.87544 -76.36119 19422 ft 454 kts 156°
2026-04-16 16:04 11.84678 -76.34792 19065 ft 451 kts 156°
2026-04-16 16:04 11.81807 -76.33463 18706 ft 447 kts 156°
2026-04-16 16:04 11.78990 -76.32160 18353 ft 446 kts 156°
2026-04-16 16:04 11.76146 -76.30844 17993 ft 442 kts 156°
2026-04-16 16:05 11.73380 -76.29564 17640 ft 439 kts 156°
2026-04-16 16:05 11.70598 -76.28277 17292 ft 436 kts 155°
2026-04-16 16:05 11.67844 -76.27003 16944 ft 433 kts 156°
2026-04-16 16:05 11.65097 -76.25732 16595 ft 432 kts 156°
2026-04-16 16:06 11.62353 -76.24465 16246 ft 428 kts 156°
2026-04-16 16:06 11.59652 -76.23219 15896 ft 425 kts 156°
2026-04-16 16:06 11.56982 -76.21986 15542 ft 414 kts 156°
2026-04-16 16:06 11.54388 -76.20788 15194 ft 403 kts 156°
2026-04-16 16:07 11.51858 -76.19617 14842 ft 393 kts 156°
2026-04-16 16:07 11.49385 -76.18475 14489 ft 383 kts 156°
2026-04-16 16:07 11.47007 -76.17375 14142 ft 374 kts 157°
2026-04-16 16:07 11.44639 -76.16282 13788 ft 366 kts 157°
2026-04-16 16:08 11.42346 -76.15224 13433 ft 358 kts 157°
2026-04-16 16:08 11.40097 -76.14189 13083 ft 351 kts 157°
2026-04-16 16:08 11.37879 -76.13169 12729 ft 344 kts 157°
2026-04-16 16:08 11.35708 -76.12170 12374 ft 338 kts 157°
2026-04-16 16:09 11.33596 -76.11197 12021 ft 332 kts 157°
2026-04-16 16:09 11.31492 -76.10226 11663 ft 327 kts 157°
2026-04-16 16:09 11.29432 -76.09277 11306 ft 322 kts 157°
2026-04-16 16:09 11.27420 -76.08347 10953 ft 317 kts 157°
2026-04-16 16:10 11.25398 -76.07413 10593 ft 313 kts 157°
2026-04-16 16:10 11.23440 -76.06512 10239 ft 310 kts 156°
2026-04-16 16:10 11.21484 -76.05613 9997 ft 301 kts 156°
2026-04-16 16:10 11.19597 -76.04747 9972 ft 297 kts 156°
2026-04-16 16:11 11.17621 -76.03840 9973 ft 321 kts 156°
2026-04-16 16:11 11.15550 -76.02887 9962 ft 329 kts 157°
2026-04-16 16:11 11.13465 -76.01926 9963 ft 330 kts 156°
2026-04-16 16:11 11.11351 -76.00952 9965 ft 329 kts 157°
2026-04-16 16:12 11.09275 -75.99996 9965 ft 329 kts 157°
2026-04-16 16:12 11.07176 -75.99031 9965 ft 330 kts 157°
2026-04-16 16:12 11.05075 -75.98066 9965 ft 330 kts 156°
2026-04-16 16:12 11.02983 -75.97105 9963 ft 330 kts 157°
2026-04-16 16:13 11.00883 -75.96141 9962 ft 331 kts 157°
2026-04-16 16:13 10.98799 -75.95182 9959 ft 319 kts 157°
2026-04-16 16:13 10.96841 -75.94280 9955 ft 302 kts 156°
2026-04-16 16:13 10.94966 -75.93419 9958 ft 286 kts 157°
2026-04-16 16:14 10.93157 -75.92590 9819 ft 285 kts 156°
2026-04-16 16:14 10.91345 -75.91759 9616 ft 283 kts 156°
2026-04-16 16:14 10.89546 -75.90932 9410 ft 281 kts 156°
2026-04-16 16:14 10.87765 -75.90112 9210 ft 281 kts 156°
2026-04-16 16:15 10.85980 -75.89291 9007 ft 280 kts 156°
2026-04-16 16:15 10.84189 -75.88468 8801 ft 280 kts 156°
2026-04-16 16:15 10.82411 -75.87651 8598 ft 280 kts 156°
2026-04-16 16:15 10.80629 -75.86832 8394 ft 280 kts 155°
2026-04-16 16:16 10.78846 -75.86015 8194 ft 280 kts 156°
2026-04-16 16:16 10.77062 -75.85201 7987 ft 279 kts 155°
2026-04-16 16:16 10.75284 -75.84387 7780 ft 279 kts 155°
2026-04-16 16:16 10.73507 -75.83569 7569 ft 278 kts 155°
2026-04-16 16:17 10.71763 -75.82769 7375 ft 276 kts 155°
2026-04-16 16:17 10.69995 -75.81960 7168 ft 275 kts 155°
2026-04-16 16:17 10.68241 -75.81156 6964 ft 276 kts 155°
2026-04-16 16:17 10.66488 -75.80352 6763 ft 276 kts 154°
2026-04-16 16:18 10.64722 -75.79541 6557 ft 275 kts 154°
2026-04-16 16:18 10.62990 -75.78747 6349 ft 273 kts 154°
2026-04-16 16:18 10.61239 -75.77944 6146 ft 274 kts 154°
2026-04-16 16:18 10.59501 -75.77149 5942 ft 273 kts 154°
2026-04-16 16:19 10.57768 -75.76356 5730 ft 271 kts 154°
2026-04-16 16:19 10.56047 -75.75567 5521 ft 272 kts 154°
2026-04-16 16:19 10.54331 -75.74781 5315 ft 270 kts 153°
2026-04-16 16:19 10.52611 -75.73993 5108 ft 269 kts 153°
2026-04-16 16:20 10.50911 -75.73216 4905 ft 268 kts 153°
2026-04-16 16:20 10.49200 -75.72430 4705 ft 268 kts 153°
2026-04-16 16:20 10.47504 -75.71652 4506 ft 268 kts 153°
2026-04-16 16:20 10.45790 -75.70866 4298 ft 266 kts 152°
2026-04-16 16:21 10.44108 -75.70096 4093 ft 266 kts 153°
2026-04-16 16:21 10.42413 -75.69321 3961 ft 265 kts 153°
2026-04-16 16:21 10.40704 -75.68537 3956 ft 267 kts 153°
2026-04-16 16:21 10.39005 -75.67760 3947 ft 268 kts 154°
2026-04-16 16:22 10.37301 -75.66982 3952 ft 266 kts 154°
2026-04-16 16:22 10.35647 -75.66228 3951 ft 251 kts 154°
2026-04-16 16:22 10.34086 -75.65517 3944 ft 240 kts 153°
2026-04-16 16:22 10.32575 -75.64823 3954 ft 240 kts 153°
2026-04-16 16:23 10.31055 -75.64127 3952 ft 240 kts 153°
2026-04-16 16:23 10.29520 -75.63426 3946 ft 240 kts 153°
2026-04-16 16:23 10.28031 -75.62609 3944 ft 239 kts 141°
2026-04-16 16:23 10.26970 -75.61362 3944 ft 236 kts 111°
2026-04-16 16:24 10.26620 -75.59768 3946 ft 233 kts 89°
2026-04-16 16:24 10.26594 -75.58112 3748 ft 230 kts 89°
2026-04-16 16:24 10.26535 -75.56516 3548 ft 226 kts 90°
2026-04-16 16:24 10.26477 -75.54937 3341 ft 222 kts 85°
2026-04-16 16:25 10.26766 -75.53450 3140 ft 212 kts 58°
2026-04-16 16:25 10.27769 -75.52410 2891 ft 203 kts 27°
2026-04-16 16:25 10.29104 -75.52035 2585 ft 199 kts
2026-04-16 16:25 10.30464 -75.51947 2297 ft 195 kts
2026-04-16 16:26 10.31810 -75.51841 2014 ft 192 kts
2026-04-16 16:26 10.33149 -75.51773 1723 ft 189 kts
2026-04-16 16:26 10.34429 -75.51710 1561 ft 179 kts
2026-04-16 16:26 10.35642 -75.51655 1415 ft 170 kts
2026-04-16 16:27 10.36774 -75.51607 1215 ft 159 kts
2026-04-16 16:27 10.37850 -75.51557 1018 ft 155 kts
2026-04-16 16:27 10.38909 -75.51489 815 ft 149 kts
2026-04-16 16:27 10.39965 -75.51461 690 ft 151 kts
2026-04-16 16:28 10.41026 -75.51409 468 ft 153 kts
2026-04-16 16:28 10.42081 -75.51369 241 ft 149 kts
2026-04-16 16:28 10.43109 -75.51327 44 ft 146 kts
2026-04-16 16:28 10.44013 -75.51340 23 ft 100 kts 325°
2026-04-16 16:29 10.44401 -75.51345 20 ft 0 kts 58°